{"data":{"norad_id":52834,"epoch":"2026-05-25T03:15:45.585792Z","epoch_age_seconds":70084,"freshness":"FRESH","line1":"1 52834U 22062E   26145.13594428 -.00000443  00000+0 -97077-5 0  9995","line2":"2 52834  53.2142  50.9385 0001478 104.0580 256.0576 15.08846349217323","mean_motion":15.08846349,"eccentricity":0.0001478,"inclination_deg":53.2142,"raan_deg":50.9385,"arg_perigee_deg":104.058,"mean_anomaly_deg":256.0576,"bstar":-9.7077e-6,"rev_number":21732,"period_min":95.437153090795,"perigee_km":538.70152282587,"apogee_km":540.74644253235,"semimajor_km":6917.8609826791,"source":"CELESTRAK","updated_at":"2026-05-25T13:38:17.240994Z"}}